QPF
0.00 0.00 0.00 0.00 0.00 0.00 0.00 0.00 0.00 0.00 0.00 0.00 0.00 0.00 0.00 0.00 0.00 0.00 0.00 0.00 0.00 0.00 0.00 0.00 0.00 0.00 0.00 0.00 0.00 0.00 0.00 0.00 0.00 0.00 0.00 0.01 0.02 0.05 0.08 0.14 0.19 0.13 0.04
0.00 0.00 0.00 0.00 0.00 0.00 0.00 0.00 0.00 0.00 0.00 0.00 0.00 0.00 0.00 0.00 0.00 0.00 0.00 0.00 0.00 0.00 0.00 0.00 0.00 0.00 0.00 0.00 0.00 0.00 0.00 0.00 0.00 0.00 0.00 0.00 0.00 0.02 0.04 0.06 0.11 0.13 0.13
0.00 0.00 0.00 0.00 0.00 0.00 0.00 0.00 0.00 0.00 0.00 0.00 0.00 0.00 0.00 0.00 0.00 0.00 0.00 0.00 0.00 0.00 0.00 0.00 0.00 0.00 0.00 0.00 0.00 0.00 0.00 0.00 0.00 0.00 0.00 0.00 0.01 0.01 0.02 0.03 0.06 0.12 0.14
0.00 0.00 0.00 0.00 0.00 0.00 0.00 0.00 0.00 0.00 0.00 0.00 0.00 0.00 0.00 0.00 0.00 0.00 0.00 0.00 0.00 0.00 0.00 0.00 0.00 0.00 0.00 0.00 0.00 0.00 0.01 0.01 0.01 0.01 0.01 0.00 0.00 0.01 0.02 0.03 0.04 0.08 0.14
0.00 0.00 0.00 0.00 0.00 0.00 0.00 0.00 0.00 0.00 0.00 0.00 0.00 0.00 0.00 0.00 0.00 0.00 0.00 0.00 0.00 0.00 0.00 0.00 0.00 0.00 0.00 0.00 0.00 0.01 0.01 0.01 0.02 0.01 0.01 0.01 0.00 0.00 0.01 0.03 0.05 0.07 0.10
0.00 0.00 0.00 0.00 0.00 0.00 0.00 0.00 0.00 0.00 0.00 0.00 0.00 0.00 0.00 0.00 0.00 0.00 0.00 0.00 0.00 0.00 0.00 0.00 0.00 0.00 0.00 0.00 0.00 0.01 0.02 0.02 0.02 0.03 0.02 0.01 0.01 0.00 0.00 0.02 0.04 0.07 0.10
0.00 0.00 0.00 0.00 0.00 0.00 0.00 0.00 0.00 0.00 0.00 0.00 0.00 0.00 0.00 0.00 0.00 0.00 0.00 0.00 0.00 0.00 0.00 0.00 0.00 0.00 0.01 0.01 0.00 0.01 0.02 0.02 0.02 0.02 0.02 0.01 0.00 0.00 0.00 0.00 0.03 0.08 0.09
0.00 0.00 0.00 0.00 0.00 0.00 0.00 0.00 0.00 0.00 0.00 0.00 0.00 0.00 0.00 0.00 0.00 0.00 0.00 0.00 0.00 0.00 0.00 0.00 0.00 0.01 0.00 0.00 0.00 0.01 0.01 0.02 0.02 0.03 0.02 0.02 0.01 0.00 0.00 0.00 0.00 0.02 0.12
0.00 0.00 0.00 0.00 0.00 0.00 0.00 0.00 0.00 0.00 0.00 0.00 0.00 0.00 0.00 0.00 0.00 0.00 0.00 0.00 0.00 0.00 0.00 0.00 0.00 0.00 0.00 0.00 0.00 0.01 0.01 0.01 0.01 0.03 0.04 0.03 0.03 0.02 0.01 0.00 0.00 0.00 0.05
0.00 0.00 0.00 0.00 0.00 0.00 0.00 0.00 0.00 0.00 0.00 0.00 0.00 0.00 0.00 0.00 0.00 0.00 0.00 0.00 0.00 0.00 0.00 0.00 0.01 0.00 0.00 0.00 0.00 0.01 0.01 0.01 0.01 0.02 0.03 0.03 0.03 0.04 0.04 0.03 0.01 0.00 0.01
0.00 0.00 0.00 0.00 0.00 0.00 0.00 0.00 0.00 0.00 0.00 0.00 0.00 0.00 0.00 0.00 0.00 0.00 0.00 0.00 0.00 0.00 0.00 0.02 0.00 0.00 0.00 0.00 0.00 0.01 0.01 0.00 0.01 0.02 0.02 0.03 0.02 0.01 0.01 0.05 0.04 0.02 0.01
0.00 0.00 0.00 0.00 0.00 0.00 0.00 0.00 0.00 0.00 0.00 0.00 0.00 0.00 0.00 0.00 0.00 0.00 0.00 0.00 0.00 0.00 0.00 0.01 0.00 0.00 0.00 0.00 0.00 0.00 0.01 0.00 0.01 0.01 0.01 0.03 0.03 0.03 0.03 0.01 0.04 0.04 0.03
0.00 0.00 0.00 0.00 0.00 0.00 0.00 0.00 0.00 0.00 0.00 0.00 0.00 0.00 0.00 0.00 0.00 0.00 0.00 0.00 0.00 0.00 0.00 0.01 0.00 0.00 0.01 0.00 0.00 0.00 0.00 0.01 0.00 0.00 0.01 0.03 0.04 0.06 0.04 0.01 0.01 0.02 0.03
0.00 0.00 0.00 0.00 0.00 0.00 0.00 0.00 0.00 0.00 0.00 0.00 0.00 0.00 0.00 0.00 0.00 0.00 0.00 0.00 0.00 0.00 0.00 0.00 0.00 0.00 0.01 0.01 0.01 0.00 0.00 0.01 0.00 0.01 0.01 0.02 0.05 0.07 0.05 0.04 0.04 0.03 0.02
0.00 0.00 0.00 0.00 0.00 0.00 0.00 0.00 0.00 0.00 0.00 0.00 0.00 0.00 0.00 0.00 0.00 0.00 0.00 0.00 0.00 0.00 0.00 0.00 0.00 0.00 0.00 0.00 0.01 0.00 0.00 0.01 0.01 0.02 0.03 0.05 0.05 0.05 0.04 0.04 0.05 0.05 0.05
0.00 0.00 0.00 0.00 0.00 0.00 0.00 0.00 0.00 0.00 0.00 0.00 0.00 0.00 0.00 0.00 0.00 0.00 0.00 0.00 0.00 0.00 0.00 0.00 0.00 0.00 0.00 0.00 0.00 0.01 0.00 0.00 0.01 0.05 0.11 0.13 0.08 0.06 0.04 0.04 0.06 0.08 0.07
0.00 0.00 0.00 0.00 0.00 0.00 0.00 0.00 0.00 0.00 0.00 0.00 0.00 0.00 0.00 0.00 0.00 0.00 0.00 0.00 0.00 0.00 0.00 0.01 0.00 0.00 0.00 0.00 0.00 0.00 0.00 0.00 0.00 0.01 0.06 0.06 0.03 0.06 0.08 0.05 0.05 0.09 0.15
0.00 0.00 0.00 0.00 0.00 0.00 0.00 0.00 0.00 0.00 0.00 0.00 0.00 0.00 0.00 0.00 0.00 0.00 0.00 0.00 0.00 0.00 0.00 0.00 0.00 0.00 0.00 0.01 0.00 0.00 0.00 0.00 0.00 0.00 0.00 0.01 0.02 0.01 0.02 0.07 0.07 0.03 0.04
0.00 0.00 0.00 0.00 0.00 0.00 0.00 0.00 0.00 0.00 0.00 0.00 0.00 0.00 0.00 0.00 0.00 0.00 0.00 0.00 0.00 0.00 0.00 0.00 0.00 0.00 0.00 0.00 0.00 0.00 0.00 0.00 0.00 0.00 0.00 0.00 0.00 0.00 0.01 0.01 0.02 0.01 0.02
0.00 0.00 0.00 0.00 0.00 0.00 0.00 0.00 0.00 0.00 0.00 0.00 0.00 0.00 0.00 0.00 0.00 0.00 0.00 0.00 0.00 0.00 0.00 0.00 0.00 0.00 0.00 0.00 0.00 0.00 0.00 0.00 0.00 0.00 0.00 0.00 0.00 0.00 0.00 0.00 0.02 0.05 0.02
0.00 0.00 0.00 0.00 0.00 0.00 0.00 0.00 0.00 0.00 0.00 0.00 0.00 0.00 0.00 0.00 0.00 0.00 0.00 0.00 0.00 0.00 0.00 0.00 0.00 0.00 0.00 0.00 0.00 0.00 0.00 0.01 0.00 0.00 0.00 0.00 0.00 0.00 0.00 0.00 0.00 0.05 0.08
0.00 0.00 0.00 0.00 0.00 0.00 0.00 0.00 0.00 0.00 0.00 0.00 0.00 0.00 0.00 0.00 0.00 0.00 0.00 0.00 0.00 0.00 0.00 0.00 0.00 0.00 0.00 0.00 0.00 0.00 0.00 0.00 0.00 0.00 0.00 0.00 0.00 0.00 0.00 0.00 0.00 0.00 0.02
0.00 0.00 0.00 0.00 0.00 0.00 0.00 0.00 0.00 0.00 0.00 0.00 0.00 0.00 0.00 0.00 0.00 0.00 0.00 0.00 0.00 0.00 0.00 0.00 0.00 0.00 0.00 0.00 0.00 0.00 0.00 0.00 0.00 0.00 0.00 0.00 0.00 0.00 0.00 0.00 0.00 0.00 0.00
0.00 0.00 0.00 0.00 0.00 0.00 0.00 0.00 0.00 0.00 0.00 0.00 0.00 0.00 0.00 0.00 0.00 0.00 0.00 0.00 0.00 0.00 0.00 0.00 0.00 0.00 0.00 0.00 0.00 0.00 0.00 0.00 0.00 0.00 0.00 0.01 0.00 0.00 0.00 0.00 0.00 0.00 0.01
0.00 0.00 0.00 0.00 0.00 0.00 0.00 0.00 0.00 0.00 0.00 0.00 0.00 0.00 0.00 0.00 0.00 0.00 0.00 0.00 0.00 0.00 0.00 0.00 0.00 0.00 0.00 0.00 0.00 0.00 0.00 0.00 0.00 0.00 0.00 0.00 0.01 0.00 0.00 0.00 0.00 0.00 0.00
0.00 0.00 0.00 0.00 0.00 0.00 0.00 0.00 0.00 0.00 0.00 0.00 0.00 0.00 0.00 0.00 0.00 0.00 0.00 0.00 0.00 0.00 0.00 0.00 0.00 0.00 0.00 0.00 0.00 0.00 0.00 0.00 0.00 0.00 0.00 0.00 0.01 0.01 0.00 0.00 0.00 0.00 0.00
MSLP
1018.29 1018.67 1019.12 1019.17 1019.14 1019.10 1019.29 1019.38 1019.37 1019.52 1019.68 1019.51 1019.15 1018.94 1018.71 1018.55 1018.42 1018.30 1018.09 1017.82 1017.62 1017.42 1017.26 1017.37 1017.47 1017.56 1017.45 1017.23 1017.02 1016.87 1016.62 1016.25 1015.69 1015.17 1014.83 1014.74 1014.53 1014.12 1013.77 1013.48 1013.50 1013.64 1013.85
1018.24 1018.85 1019.18 1019.30 1019.33 1019.37 1019.48 1019.73 1019.92 1020.01 1020.04 1019.64 1019.34 1019.21 1019.18 1018.96 1018.77 1018.44 1018.19 1018.14 1017.90 1017.99 1018.05 1018.07 1017.95 1017.82 1017.75 1017.55 1017.16 1016.79 1016.48 1016.15 1015.58 1015.02 1014.54 1014.09 1013.93 1013.74 1013.49 1013.14 1012.75 1012.78 1012.99
1018.05 1018.86 1019.33 1019.59 1019.69 1019.69 1019.81 1020.07 1020.16 1020.12 1020.14 1019.92 1019.84 1019.73 1019.77 1019.48 1019.39 1019.14 1018.92 1018.87 1019.05 1018.90 1018.69 1018.50 1018.30 1017.98 1017.77 1017.56 1017.18 1016.86 1016.47 1015.91 1015.41 1014.78 1014.28 1013.70 1013.26 1012.94 1012.80 1012.54 1012.27 1012.06 1012.12
1018.03 1018.75 1019.40 1019.79 1019.95 1020.03 1020.20 1020.42 1020.35 1020.27 1020.29 1020.26 1020.23 1020.27 1020.07 1019.88 1019.91 1019.83 1019.91 1020.01 1020.08 1019.83 1019.39 1019.03 1018.86 1018.58 1018.24 1017.83 1017.46 1016.96 1016.61 1015.75 1015.00 1014.54 1013.96 1013.21 1012.76 1012.03 1011.76 1011.72 1011.60 1011.30 1011.29
1018.34 1018.77 1019.40 1019.89 1020.06 1020.34 1020.44 1020.48 1020.57 1020.40 1020.30 1020.37 1020.34 1020.50 1020.51 1020.72 1020.75 1020.60 1020.68 1020.92 1020.78 1020.29 1019.99 1019.70 1019.46 1019.13 1018.61 1018.26 1017.98 1017.24 1016.46 1015.89 1015.17 1014.41 1013.71 1012.87 1012.06 1011.35 1010.78 1010.78 1010.79 1010.54 1010.31
1018.69 1019.04 1019.45 1019.92 1020.18 1020.50 1020.65 1020.58 1020.67 1020.66 1020.61 1020.72 1020.56 1020.79 1021.09 1021.22 1021.17 1021.27 1021.35 1021.12 1020.78 1020.52 1020.31 1020.15 1019.88 1019.46 1019.08 1018.72 1018.22 1017.59 1016.82 1015.98 1015.03 1013.88 1012.91 1012.04 1011.26 1010.58 1009.96 1009.57 1009.54 1009.52 1009.70
1019.00 1019.38 1019.62 1019.92 1020.30 1020.67 1020.88 1020.67 1020.81 1020.98 1020.97 1020.93 1020.83 1021.23 1021.47 1021.47 1021.71 1021.79 1021.59 1021.31 1021.06 1020.92 1020.79 1020.52 1019.91 1019.77 1019.59 1019.29 1018.75 1018.07 1017.20 1016.23 1014.92 1013.34 1012.04 1011.07 1010.05 1009.47 1009.08 1008.64 1008.32 1008.43 1008.57
1019.18 1019.54 1019.75 1020.11 1020.42 1020.80 1020.84 1020.85 1020.83 1021.26 1021.79 1021.54 1021.69 1021.91 1022.29 1022.18 1022.09 1022.15 1022.02 1021.76 1021.66 1021.30 1020.88 1020.50 1020.31 1020.27 1020.15 1019.81 1019.19 1018.46 1017.74 1016.55 1015.09 1013.62 1011.90 1010.52 1009.35 1008.27 1008.15 1007.69 1007.26 1007.23 1007.36
1019.25 1019.58 1019.89 1020.13 1020.51 1020.76 1020.84 1021.07 1021.10 1021.19 1022.09 1022.67 1021.93 1021.93 1022.82 1023.42 1023.29 1022.19 1022.18 1022.03 1021.82 1021.45 1020.85 1020.69 1020.61 1020.92 1020.64 1020.16 1019.48 1018.83 1018.03 1017.22 1015.57 1014.03 1012.37 1010.63 1008.88 1007.52 1006.90 1006.57 1006.34 1006.16 1006.25
1019.41 1019.64 1020.02 1020.29 1020.53 1020.75 1020.87 1021.18 1021.34 1021.58 1022.17 1022.54 1022.53 1022.86 1023.30 1023.86 1024.02 1023.44 1022.47 1022.40 1021.81 1021.65 1021.22 1020.81 1020.91 1021.24 1021.02 1020.59 1020.00 1019.45 1018.67 1017.54 1016.24 1014.60 1012.92 1011.34 1009.47 1007.66 1006.30 1005.58 1005.18 1005.03 1005.14
1019.59 1019.76 1020.16 1020.37 1020.51 1020.71 1020.95 1021.18 1021.73 1022.20 1022.50 1022.40 1022.70 1023.55 1023.83 1024.04 1024.35 1024.65 1023.82 1022.93 1022.26 1021.90 1021.50 1021.45 1021.40 1021.40 1021.40 1020.98 1020.32 1019.90 1019.04 1018.03 1016.68 1015.19 1013.61 1012.04 1010.37 1008.74 1006.93 1005.49 1004.52 1003.96 1003.99
1019.93 1019.99 1020.20 1020.35 1020.37 1020.71 1020.98 1021.35 1021.93 1022.31 1022.51 1022.68 1023.09 1023.39 1023.81 1024.21 1024.41 1024.55 1024.14 1023.51 1022.92 1022.15 1021.85 1021.83 1021.98 1021.68 1021.60 1021.34 1020.85 1020.31 1019.48 1018.54 1017.33 1015.97 1014.50 1012.81 1011.12 1009.74 1008.11 1006.10 1004.71 1003.48 1002.97
1019.95 1020.14 1020.24 1020.30 1020.46 1020.70 1020.97 1021.35 1021.73 1022.16 1022.48 1022.74 1023.18 1023.54 1023.76 1024.11 1024.45 1024.34 1024.14 1023.53 1023.19 1022.58 1022.21 1022.13 1022.39 1022.24 1021.70 1021.59 1021.21 1020.62 1019.94 1019.00 1017.89 1016.63 1015.24 1013.67 1012.11 1010.80 1009.26 1007.07 1005.26 1004.19 1002.98
1019.68 1019.96 1020.22 1020.18 1020.58 1020.62 1021.09 1021.37 1021.93 1022.23 1022.53 1023.06 1023.38 1023.52 1023.73 1024.25 1024.46 1024.45 1024.11 1023.59 1023.00 1022.80 1022.30 1022.65 1022.40 1022.57 1022.14 1021.74 1021.28 1021.09 1020.44 1019.29 1018.46 1017.55 1016.22 1014.75 1013.31 1011.94 1010.48 1008.54 1007.16 1006.02 1003.99
1019.62 1019.96 1020.21 1020.30 1020.77 1020.98 1021.30 1021.62 1022.06 1022.42 1022.93 1023.34 1023.33 1023.57 1024.11 1024.47 1024.69 1024.68 1024.15 1023.81 1023.49 1023.16 1022.85 1022.65 1022.75 1022.71 1022.56 1021.94 1021.68 1021.39 1020.91 1020.09 1019.05 1018.26 1017.20 1015.91 1014.42 1013.01 1011.55 1010.06 1008.63 1007.35 1005.95
1019.21 1019.91 1020.08 1020.52 1020.92 1021.13 1021.52 1021.88 1022.28 1022.85 1023.27 1023.43 1023.72 1023.92 1024.67 1024.85 1025.19 1024.73 1024.33 1023.93 1023.86 1023.68 1023.48 1023.02 1023.01 1023.07 1022.85 1022.39 1022.09 1021.68 1021.24 1020.68 1019.67 1018.70 1017.70 1016.46 1015.38 1014.27 1012.66 1011.42 1010.50 1009.31 1008.03
1018.94 1019.74 1020.17 1020.81 1020.69 1021.24 1021.86 1022.16 1022.78 1023.05 1023.19 1023.88 1024.18 1024.65 1025.11 1025.42 1025.45 1024.86 1024.36 1024.25 1023.97 1023.86 1023.62 1023.17 1023.32 1023.20 1022.90 1022.90 1022.54 1021.96 1021.39 1021.01 1020.44 1019.44 1018.42 1017.22 1016.46 1015.20 1013.91 1012.87 1011.92 1011.00 1009.97
1019.04 1019.34 1020.33 1020.50 1020.83 1021.39 1021.99 1022.45 1023.01 1023.21 1023.49 1024.13 1024.79 1025.10 1025.62 1025.89 1025.72 1025.05 1024.74 1024.58 1024.39 1024.01 1023.69 1023.81 1023.84 1023.44 1023.42 1022.96 1022.79 1022.47 1021.86 1021.23 1020.80 1020.14 1019.38 1018.35 1017.26 1016.30 1015.12 1014.06 1013.63 1012.46 1011.29
1018.90 1019.66 1020.19 1020.39 1020.88 1021.62 1022.23 1022.61 1023.00 1023.26 1023.81 1024.51 1025.20 1025.63 1026.09 1026.13 1025.75 1025.24 1025.15 1025.10 1024.94 1024.53 1024.23 1024.63 1024.83 1024.22 1023.78 1023.59 1022.97 1022.60 1022.39 1022.01 1021.36 1020.80 1020.18 1019.42 1018.47 1017.64 1016.93 1015.94 1015.25 1014.53 1013.51
1019.15 1019.95 1020.25 1020.34 1021.09 1021.58 1022.15 1022.61 1022.99 1023.39 1024.13 1024.82 1025.43 1026.02 1026.31 1026.03 1025.74 1025.43 1025.28 1025.37 1025.24 1025.13 1025.28 1025.44 1025.45 1025.40 1024.99 1024.27 1023.83 1023.32 1022.85 1022.71 1022.35 1021.55 1020.99 1020.47 1019.76 1018.77 1017.89 1017.04 1016.34 1015.98 1015.52
1019.50 1019.95 1020.28 1020.61 1021.40 1021.55 1022.25 1022.54 1022.86 1023.57 1024.43 1025.08 1025.65 1026.21 1026.17 1025.53 1025.25 1025.24 1025.24 1025.66 1025.50 1025.65 1026.02 1026.21 1026.33 1026.26 1026.04 1025.53 1025.03 1024.25 1023.50 1022.91 1023.04 1022.87 1022.04 1021.30 1020.59 1019.91 1018.95 1018.07 1017.64 1017.36 1016.85
1019.77 1020.35 1020.58 1020.79 1021.29 1021.57 1022.15 1022.38 1022.81 1023.66 1024.68 1025.30 1026.04 1026.40 1025.98 1025.56 1025.67 1025.47 1025.22 1025.39 1025.78 1026.13 1026.38 1026.57 1026.85 1027.04 1026.63 1026.15 1025.61 1024.79 1024.11 1023.82 1023.74 1023.37 1023.15 1022.50 1021.76 1021.24 1020.67 1019.91 1019.27 1018.59 1018.13
1020.04 1020.66 1020.91 1021.07 1021.42 1021.71 1022.18 1022.59 1023.31 1024.07 1024.88 1025.71 1026.38 1026.71 1026.47 1025.70 1025.98 1025.90 1025.74 1025.71 1025.87 1026.19 1026.31 1026.60 1026.91 1026.92 1026.64 1026.16 1025.64 1024.83 1024.57 1024.47 1024.71 1024.49 1023.90 1023.76 1023.19 1022.90 1022.38 1021.56 1020.79 1020.23 1019.55
1019.99 1020.75 1021.11 1021.40 1021.63 1021.94 1022.39 1023.13 1023.80 1024.70 1025.58 1026.20 1026.93 1027.45 1026.89 1026.32 1026.27 1025.94 1026.10 1026.41 1026.79 1027.12 1026.84 1026.65 1027.05 1027.06 1026.65 1025.83 1025.38 1024.72 1024.56 1024.78 1024.88 1024.88 1024.60 1024.59 1024.40 1024.25 1023.70 1023.19 1022.06 1021.38 1020.96
1019.87 1020.49 1021.16 1021.61 1021.76 1022.19 1022.71 1023.44 1024.33 1025.12 1025.92 1026.65 1027.37 1027.41 1027.27 1026.51 1025.66 1025.93 1026.27 1026.97 1027.24 1027.46 1026.59 1026.30 1026.37 1026.32 1026.08 1025.39 1024.99 1024.93 1025.13 1025.11 1025.70 1025.93 1025.47 1025.34 1024.99 1024.78 1024.29 1024.15 1023.61 1022.91 1022.13
1019.61 1020.44 1021.37 1021.81 1022.07 1022.34 1022.74 1023.66 1024.58 1025.31 1026.21 1026.84 1027.18 1026.94 1026.06 1026.28 1025.66 1026.12 1026.60 1027.13 1027.69 1027.98 1027.71 1027.34 1027.58 1027.26 1027.11 1026.65 1025.83 1025.96 1025.86 1026.03 1026.61 1026.75 1025.92 1025.93 1025.57 1025.34 1025.23 1025.03 1024.54 1024.06 1023.52
Thickness
5640 5636 5632 5632 5632 5632 5630 5630 5629 5627 5625 5625 5627 5628 5629 5629 5628 5627 5628 5627 5627 5627 5627 5625 5624 5622 5620 5621 5621 5621 5621 5624 5628 5632 5636 5637 5639 5644 5648 5651 5652 5653 5654
5634 5627 5626 5625 5624 5623 5623 5620 5618 5617 5615 5617 5618 5618 5616 5616 5616 5618 5618 5618 5617 5615 5613 5610 5609 5608 5606 5607 5609 5610 5610 5611 5614 5619 5624 5629 5632 5634 5638 5643 5648 5650 5651
5627 5621 5618 5616 5614 5614 5613 5611 5609 5608 5606 5606 5605 5605 5603 5603 5603 5604 5603 5602 5599 5597 5596 5594 5591 5591 5589 5589 5590 5592 5593 5595 5598 5605 5609 5615 5621 5626 5630 5634 5640 5645 5647
5620 5615 5610 5607 5605 5604 5603 5601 5600 5599 5597 5594 5592 5590 5590 5589 5587 5586 5583 5581 5578 5577 5577 5576 5574 5573 5571 5569 5568 5570 5571 5577 5582 5584 5591 5600 5606 5616 5621 5626 5631 5638 5642
5609 5606 5601 5597 5596 5593 5592 5592 5590 5589 5588 5584 5583 5578 5576 5572 5568 5566 5564 5561 5559 5560 5558 5555 5552 5550 5549 5547 5545 5546 5549 5552 5558 5563 5569 5578 5589 5599 5609 5614 5620 5628 5635
5598 5596 5593 5589 5586 5583 5582 5582 5580 5578 5576 5572 5572 5566 5560 5556 5553 5550 5547 5546 5545 5543 5540 5535 5530 5525 5522 5519 5517 5516 5519 5521 5529 5540 5548 5558 5569 5582 5592 5602 5610 5618 5624
5586 5584 5583 5580 5577 5573 5571 5573 5569 5566 5564 5561 5558 5552 5547 5544 5537 5534 5533 5533 5529 5525 5519 5513 5508 5501 5495 5490 5485 5479 5481 5484 5493 5507 5521 5533 5549 5564 5575 5587 5599 5607 5615
5575 5573 5572 5570 5567 5563 5563 5561 5560 5554 5547 5546 5542 5536 5529 5529 5523 5518 5516 5515 5509 5505 5500 5493 5483 5473 5465 5457 5453 5450 5451 5457 5466 5477 5495 5512 5529 5547 5557 5572 5587 5597 5606
5565 5563 5561 5560 5557 5554 5553 5549 5547 5545 5536 5528 5531 5528 5521 5511 5499 5505 5501 5498 5494 5488 5480 5469 5457 5443 5437 5434 5432 5431 5432 5435 5445 5456 5471 5489 5509 5530 5545 5558 5572 5585 5596
5554 5552 5550 5548 5547 5546 5542 5537 5536 5533 5526 5519 5515 5510 5502 5492 5482 5477 5483 5480 5478 5469 5459 5450 5437 5426 5421 5416 5413 5412 5414 5421 5427 5440 5455 5470 5489 5510 5529 5546 5560 5574 5585
5541 5540 5538 5537 5538 5534 5530 5528 5523 5518 5513 5510 5503 5493 5487 5480 5472 5462 5462 5460 5459 5451 5442 5430 5422 5413 5406 5401 5400 5399 5402 5408 5416 5427 5441 5455 5471 5488 5508 5529 5547 5564 5576
5528 5527 5525 5526 5526 5522 5522 5517 5512 5506 5501 5497 5490 5484 5476 5470 5464 5455 5449 5443 5438 5434 5427 5418 5409 5401 5394 5390 5387 5388 5391 5397 5404 5414 5425 5440 5456 5470 5489 5511 5528 5549 5566
5516 5514 5514 5515 5515 5514 5512 5508 5503 5497 5491 5486 5479 5474 5469 5460 5451 5444 5437 5433 5425 5420 5416 5410 5399 5392 5387 5382 5379 5380 5383 5389 5396 5404 5414 5426 5439 5452 5469 5493 5513 5529 5551
5507 5504 5502 5503 5503 5504 5501 5498 5491 5485 5480 5474 5469 5465 5458 5448 5440 5432 5428 5424 5420 5413 5411 5397 5393 5385 5380 5377 5374 5373 5375 5382 5387 5391 5400 5411 5422 5435 5450 5470 5488 5506 5530
5497 5494 5491 5492 5492 5492 5488 5485 5479 5473 5467 5463 5460 5454 5445 5436 5427 5420 5418 5414 5409 5405 5402 5395 5387 5380 5374 5372 5368 5367 5368 5371 5377 5383 5389 5397 5408 5421 5435 5450 5468 5486 5503
5489 5483 5481 5482 5483 5480 5476 5472 5467 5460 5456 5453 5447 5442 5431 5423 5412 5410 5409 5406 5399 5394 5390 5389 5382 5374 5368 5366 5362 5361 5361 5364 5371 5377 5383 5391 5397 5406 5420 5433 5446 5461 5478
5481 5475 5473 5474 5473 5468 5462 5459 5452 5450 5448 5439 5434 5426 5417 5408 5402 5402 5401 5395 5392 5388 5385 5385 5376 5370 5366 5360 5358 5357 5358 5360 5364 5370 5376 5385 5388 5396 5406 5416 5428 5442 5457
5471 5469 5464 5465 5462 5456 5451 5447 5441 5440 5436 5428 5419 5413 5404 5397 5393 5394 5390 5386 5382 5381 5381 5375 5370 5367 5361 5358 5354 5353 5353 5355 5359 5362 5367 5373 5380 5386 5396 5404 5410 5424 5439
5462 5458 5456 5454 5451 5444 5439 5436 5432 5430 5424 5416 5407 5399 5392 5386 5385 5385 5380 5374 5371 5372 5370 5361 5354 5356 5356 5353 5351 5350 5348 5348 5351 5354 5358 5363 5369 5374 5380 5388 5396 5402 5415
5452 5448 5445 5445 5439 5437 5431 5427 5424 5420 5412 5404 5396 5388 5381 5379 5376 5375 5372 5366 5364 5361 5355 5349 5345 5343 5343 5344 5343 5343 5344 5341 5342 5346 5349 5352 5356 5363 5370 5377 5384 5388 5394
5441 5437 5436 5435 5429 5427 5421 5419 5417 5410 5401 5394 5387 5377 5374 5374 5373 5369 5365 5356 5354 5349 5342 5337 5332 5329 5327 5331 5330 5333 5336 5338 5335 5335 5338 5341 5346 5352 5359 5366 5370 5374 5379
5426 5425 5424 5426 5422 5419 5413 5412 5408 5400 5392 5385 5376 5369 5367 5366 5362 5360 5358 5352 5346 5337 5328 5326 5320 5317 5315 5318 5321 5325 5324 5326 5325 5327 5327 5329 5333 5336 5341 5347 5353 5360 5364
5419 5414 5415 5414 5412 5409 5406 5402 5395 5389 5382 5375 5368 5362 5358 5358 5353 5351 5347 5342 5337 5330 5326 5320 5314 5311 5312 5313 5314 5321 5319 5317 5314 5315 5318 5318 5320 5321 5323 5329 5335 5341 5348
5411 5406 5405 5404 5401 5399 5395 5389 5384 5378 5369 5363 5357 5351 5348 5347 5346 5344 5338 5332 5326 5321 5318 5314 5308 5306 5306 5309 5310 5311 5312 5309 5308 5307 5308 5310 5308 5308 5311 5315 5321 5326 5331
5404 5401 5397 5394 5393 5388 5383 5378 5373 5366 5359 5351 5348 5344 5342 5339 5341 5336 5330 5321 5316 5314 5314 5310 5305 5302 5300 5302 5305 5304 5299 5304 5297 5292 5297 5296 5298 5299 5302 5302 5305 5310 5316
5398 5392 5385 5383 5382 5377 5374 5369 5362 5356 5348 5342 5337 5336 5336 5335 5333 5327 5321 5315 5307 5305 5303 5302 5299 5296 5294 5294 5295 5296 5293 5287 5277 5279 5284 5286 5287 5288 5284 5291 5293 5295 5299